Location: Unspecified
(0.0000°N, 0.0000°E)
Time: 16:17:58
(UTC+00:00)

Vanguard 2 - Pass Details

Date: 22 November 2019
Orbit: 553 x 2938 km, 32.9° (Epoch: 13 December)

Event Time Altitude Azimuth Distance (km) Brightness Sun altitude
Rises 22:24:24 0° 211° (SSW) 5,153 12.2 -61.6°
Reaches altitude 10° 22:30:28 10° 187° (S) 4,693 11.7 -62.6°
Maximum altitude 22:36:39 14° 160° (SSE) 4,808 11.6 -63.6°
Drops below altitude 10° 22:43:45 10° 133° (SE) 5,509 11.8 -64.7°
Sets 22:52:17 0° 111° (ESE) 6,765 12.3 -65.9°
